Clearfield, PA

2:55 PM EDT on May 20, 2018 (GMT -0400)
Clearfield-Lawrence

Weather History for KFIG - November, 2011

Change the Weather History Date:

Friday, November 18, 2011

  Actual Average (WUND) Record (WUND)
Temperature  
Mean Temperature 32 °F -  
Max Temperature 39 °F - - (-1)
Min Temperature 24 °F - - (-1)
Degree Days  
Heating Degree Days 34    
Moisture  
Dew Point 17 °F    
Average Humidity 58    
Maximum Humidity 78    
Minimum Humidity 33    
Precipitation  
Precipitation 0.00 in - - ()
Sea Level Pressure  
Sea Level Pressure 30.34 in    
Wind  
Wind Speed 8 mph (WSW)    
Max Wind Speed 13 mph    
Max Gust Speed 20 mph    
Visibility 10 miles    
Events      
Averages and records for this station are not official NWS values.
T = Trace of Precipitation, MM = Missing Value Source: NWS Daily Summary

Daily Weather History Graph

Daily Weather History Graph

Search for Another Location

Airport or City:

Astronomy

Nov. 18, 2011 Rise Set
Actual Time 7:04 AM EST 4:52 PM EST
Civil Twilight 6:34 AM EST 5:22 PM EST
Nautical Twilight 6:01 AM EST 5:55 PM EST
Astronomical Twilight 5:28 AM EST 6:28 PM EST
Moon No Moon Rise 12:41 PM EST (11/18)
Length of Visible Light 10h 47m
Length of Day
9h 48m
Waning Gibbous, 49% of the Moon is Illuminated
Nov 18
Waning Gibbous
Nov 25
New
Dec 2
First Quarter
Dec 10
Full
Dec 17
Last Quarter

Hourly Weather History & Observations

Time (EST) Temp. Windchill Dew Point Humidity Pressure Visibility Wind Dir Wind Speed Gust Speed Precip Events Conditions
12:54 AM 28.9 °F 19.8 °F 17.1 °F 61% 30.21 in 10.0 mi West 10.4 mph - N/A   Overcast
1:54 AM 28.0 °F 19.3 °F 18.0 °F 66% 30.23 in 10.0 mi West 9.2 mph 17.3 mph N/A   Mostly Cloudy
2:32 AM 28.4 °F 19.1 °F 17.6 °F 64% 30.22 in 10.0 mi West 10.4 mph 18.4 mph N/A   Overcast
2:54 AM 28.9 °F 20.4 °F 18.0 °F 64% 30.28 in 10.0 mi West 9.2 mph - N/A   Overcast
3:10 AM 28.4 °F 20.4 °F 17.6 °F 64% 30.23 in 10.0 mi West 8.1 mph 19.6 mph N/A   Overcast
3:54 AM 28.0 °F 20.0 °F 17.1 °F 63% 30.29 in 10.0 mi West 8.1 mph - N/A   Overcast
4:54 AM 27.0 °F 18.7 °F 15.1 °F 61% 30.32 in 10.0 mi West 8.1 mph 16.1 mph N/A   Overcast
5:54 AM 25.0 °F 17.1 °F 15.1 °F 66% 30.35 in 10.0 mi WSW 6.9 mph - N/A   Clear
6:54 AM 24.1 °F 17.0 °F 16.0 °F 71% 30.38 in 10.0 mi SW 5.8 mph - N/A   Clear
7:54 AM 25.0 °F 18.1 °F 16.0 °F 69% 30.40 in 10.0 mi SW 5.8 mph - N/A   Clear
8:54 AM 28.0 °F 18.6 °F 17.1 °F 63% 30.41 in 10.0 mi WSW 10.4 mph - N/A   Clear
9:54 AM 33.1 °F 25.5 °F 17.1 °F 52% 30.42 in 10.0 mi West 9.2 mph 16.1 mph N/A   Clear
10:54 AM 35.1 °F 27.9 °F 17.1 °F 48% 30.41 in 10.0 mi SW 9.2 mph - N/A   Clear
11:54 AM 36.0 °F 28.5 °F 17.1 °F 46% 30.40 in 10.0 mi SW 10.4 mph - N/A   Clear
12:54 PM 37.9 °F 32.1 °F 15.1 °F 39% 30.38 in 10.0 mi SW 8.1 mph - N/A   Clear
1:54 PM 39.0 °F 31.4 °F 12.9 °F 34% 30.37 in 10.0 mi SSW 12.7 mph 18.4 mph N/A   Clear
2:54 PM 39.9 °F 33.4 °F 12.9 °F 33% 30.36 in 10.0 mi SSW 10.4 mph - N/A   Clear
3:54 PM 37.9 °F 31.5 °F 15.1 °F 39% 30.38 in 10.0 mi SSW 9.2 mph - N/A   Clear
4:54 PM 35.1 °F 32.2 °F 16.0 °F 46% 30.34 in 10.0 mi South 3.5 mph - N/A   Clear
5:54 PM 34.0 °F 29.8 °F 15.1 °F 46% 30.36 in 10.0 mi SSW 4.6 mph - N/A   Clear
6:54 PM 32.0 °F - 15.1 °F 50% 30.36 in 10.0 mi Calm Calm - N/A   Clear
7:54 PM 28.0 °F - 18.0 °F 66% 30.35 in 10.0 mi Calm Calm - N/A   Clear
8:54 PM 26.1 °F 20.5 °F 19.0 °F 75% 30.35 in 10.0 mi North 4.6 mph - N/A   Scattered Clouds
9:54 PM 26.1 °F 19.4 °F 19.0 °F 75% 30.33 in 10.0 mi North 5.8 mph - N/A   Mostly Cloudy
10:54 PM 26.1 °F 20.5 °F 17.1 °F 69% 30.31 in 10.0 mi North 4.6 mph - N/A   Partly Cloudy
11:54 PM 25.0 °F 18.1 °F 19.0 °F 78% 30.32 in 10.0 mi North 5.8 mph - N/A   Scattered Clouds